STARLINK-2464 (48123 NORAD) Tracking and Keplerian Element Data

This shows tracking and keplerian element data for the satellite.

Feedback or suggestion? Click here.




ElementValue
Catalog48123
NameSTARLINK-2464
Epoch Orbit181
Epoch Day136.83334491
Epoch Year2021
RAAN145.8063
Inclination53.0473
Eccentricity0.0002657
Argument of Perigee22.6035
Mean Anonmoly130.9938
Mean Motion15.73211713
Decay Rate0.00038848
L11 48123U 21027AH 21136.83334491 .00038848 00000-0 27972-3 0 9999
L22 48123 53.0473 145.8063 0002657 22.6035 130.9938 15.73211713 1811

Live tracking and technical data element details for STARLINK-2464 (NORAD 48123). STARLINK-2464 can be tracked NOW for your location showing map with azimuth and elevation plus other details from your city location.

Track the satellite on the map from your city or location and see movement details for azimuth, elevation, latitude, longitude, range, height, and movement on the map or in text.







IsCatalogInMostPopularTable: catalog: 48123, numindb: 14
Update: records affected: 1



GetName: 48123 STARLINK-2464

Hit Count: updated at: Mon, 17 May 2021 16:55:14 GMT